| time (UTC) | temp C | wind direction | speed KPH | gust KPH | rain 1hr cm | rain 24hr cm | rain mn cm | humidity % | barometer mb |
| 20260508043925 | 3 | 235 | 0.0 | 0.0 | 0.00 | 0.00 | 0.00 | 88 | 1017.3 |
| 20260508043424 | 3 | 265 | 0.0 | 0.0 | 0.00 | 0.00 | 0.00 | 88 | 1017.3 |
| 20260508042919 | 3 | 239 | 0.0 | 0.0 | 0.00 | 0.00 | 0.00 | 88 | 1017.3 |
| 20260508042418 | 3 | 265 | 0.0 | 0.0 | 0.00 | 0.00 | 0.00 | 86 | 1017.4 |
| 20260508041914 | 3 | 230 | 0.0 | 0.0 | 0.00 | 0.00 | 0.00 | 86 | 1017.3 |
| 20260508041411 | 3 | 268 | 1.6 | 3.2 | 0.00 | 0.00 | 0.00 | 86 | 1017.0 |
| 20260508040907 | 3 | 224 | 0.0 | 0.0 | 0.00 | 0.00 | 0.00 | 87 | 1017.1 |
| 20260508040405 | 3 | 280 | 0.0 | 0.0 | 0.00 | 0.00 | 0.00 | 85 | 1016.8 |
| 20260508035903 | 4 | 231 | 0.0 | 0.0 | 0.00 | 0.05 | 0.05 | 85 | 1016.9 |
| 20260508035359 | 4 | 246 | 0.0 | 0.0 | 0.00 | 0.05 | 0.05 | 82 | 1016.9 |
| 20260508034856 | 5 | 266 | 0.0 | 0.0 | 0.00 | 0.05 | 0.05 | 81 | 1016.7 |
| 20260508034354 | 5 | 193 | 0.0 | 0.0 | 0.00 | 0.05 | 0.05 | 76 | 1016.7 |
| 20260508033850 | 5 | 236 | 0.0 | 0.0 | 0.00 | 0.05 | 0.05 | 74 | 1016.5 |
| 20260508033348 | 5 | 267 | 3.2 | 4.8 | 0.00 | 0.05 | 0.05 | 77 | 1016.5 |
| 20260508032845 | 5 | 251 | 0.0 | 0.0 | 0.00 | 0.05 | 0.05 | 77 | 1016.4 |
| 20260508032343 | 6 | 276 | 0.0 | 0.0 | 0.00 | 0.05 | 0.05 | 71 | 1016.4 |
| 20260508031839 | 6 | 279 | 1.6 | 3.2 | 0.00 | 0.05 | 0.05 | 73 | 1016.5 |
| 20260508031336 | 6 | 229 | 0.0 | 0.0 | 0.00 | 0.05 | 0.05 | 74 | 1016.3 |
| 20260508030832 | 6 | 247 | 0.0 | 0.0 | 0.00 | 0.05 | 0.05 | 69 | 1016.3 |
| 20260508030330 | 7 | 252 | 0.0 | 0.0 | 0.00 | 0.05 | 0.05 | 62 | 1016.2 |
| 20260508025826 | 7 | 117 | 1.6 | 3.2 | 0.00 | 0.05 | 0.05 | 57 | 1016.2 |
| 20260508025323 | 7 | 253 | 0.0 | 0.0 | 0.00 | 0.05 | 0.05 | 63 | 1016.4 |
| 20260508024820 | 7 | 301 | 0.0 | 0.0 | 0.00 | 0.05 | 0.05 | 66 | 1016.2 |
| 20260508024317 | 8 | 268 | 0.0 | 0.0 | 0.00 | 0.05 | 0.05 | 62 | 1016.1 |
| 20260508023814 | 7 | 170 | 4.8 | 9.7 | 0.00 | 0.05 | 0.05 | 58 | 1016.0 |
| 20260508023310 | 7 | 171 | 0.0 | 0.0 | 0.00 | 0.05 | 0.05 | 64 | 1016.0 |
| 20260508022807 | 7 | 237 | 1.6 | 3.2 | 0.00 | 0.05 | 0.05 | 68 | 1015.8 |
| 20260508022306 | 7 | 313 | 1.6 | 3.2 | 0.00 | 0.05 | 0.05 | 70 | 1015.8 |
| 20260508021800 | 7 | 261 | 1.6 | 4.8 | 0.00 | 0.05 | 0.05 | 60 | 1015.7 |
| 20260508021255 | 8 | 276 | 1.6 | 3.2 | 0.00 | 0.05 | 0.05 | 64 | 1015.7 |
| 20260508020752 | 7 | 290 | 1.6 | 3.2 | 0.00 | 0.05 | 0.05 | 71 | 1015.6 |
| 20260508020250 | 6 | 258 | 0.0 | 0.0 | 0.00 | 0.05 | 0.05 | 74 | 1015.7 |
| 20260508015747 | 6 | 186 | 0.0 | 0.0 | 0.00 | 0.05 | 0.05 | 77 | 1015.4 |
| 20260508015244 | 6 | 279 | 0.0 | 0.0 | 0.00 | 0.05 | 0.05 | 77 | 1015.6 |
| 20260508014741 | 7 | 234 | 0.0 | 4.8 | 0.00 | 0.05 | 0.05 | 78 | 1015.6 |
| 20260508014238 | 7 | 224 | 0.0 | 0.0 | 0.00 | 0.05 | 0.05 | 76 | 1015.4 |
| 20260508013733 | 7 | 236 | 0.0 | 0.0 | 0.00 | 0.05 | 0.05 | 74 | 1015.4 |
| 20260508013230 | 7 | 254 | 0.0 | 0.0 | 0.00 | 0.05 | 0.05 | 73 | 1015.2 |
| 20260508012728 | 7 | 260 | 1.6 | 3.2 | 0.00 | 0.05 | 0.05 | 74 | 1015.1 |
| 20260508012224 | 8 | 227 | 0.0 | 0.0 | 0.00 | 0.05 | 0.05 | 68 | 1015.0 |
| 20260508011723 | 7 | 265 | 0.0 | 0.0 | 0.00 | 0.05 | 0.05 | 72 | 1015.0 |
| 20260508011220 | 8 | 313 | 0.0 | 0.0 | 0.00 | 0.05 | 0.05 | 67 | 1015.0 |
| 20260508010716 | 8 | 266 | 1.6 | 3.2 | 0.00 | 0.05 | 0.05 | 73 | 1014.9 |
| 20260508010214 | 8 | 310 | 6.4 | 11.3 | 0.00 | 0.05 | 0.05 | 68 | 1014.8 |
| 20260508005711 | 8 | 229 | 0.0 | 0.0 | 0.00 | 0.05 | 0.05 | 71 | 1014.6 |
| 20260508005208 | 8 | 268 | 3.2 | 3.2 | 0.00 | 0.05 | 0.05 | 71 | 1014.8 |
| 20260508004703 | 9 | 264 | 0.0 | 4.8 | 0.00 | 0.05 | 0.05 | 68 | 1014.8 |
| 20260508004200 | 8 | 156 | 4.8 | 4.8 | 0.00 | 0.05 | 0.05 | 68 | 1014.6 |
| 20260508003657 | 8 | 266 | 0.0 | 0.0 | 0.00 | 0.05 | 0.05 | 71 | 1014.5 |
| 20260508003154 | 9 | 281 | 0.0 | 0.0 | 0.00 | 0.05 | 0.05 | 69 | 1014.6 |
| 20260508002650 | 10 | 286 | 0.0 | 3.2 | 0.00 | 0.05 | 0.05 | 60 | 1014.4 |
| 20260508002148 | 9 | 293 | 3.2 | 4.8 | 0.00 | 0.05 | 0.05 | 69 | 1014.5 |
| 20260508001643 | 10 | 272 | 3.2 | 4.8 | 0.00 | 0.05 | 0.05 | 64 | 1014.4 |
| 20260508001139 | 10 | 256 | 0.0 | 0.0 | 0.00 | 0.05 | 0.05 | 62 | 1014.4 |
| 20260508000635 | 10 | 268 | 1.6 | 4.8 | 0.00 | 0.05 | 0.05 | 61 | 1014.4 |
| 20260508000133 | 11 | 279 | 0.0 | 0.0 | 0.00 | 0.05 | 0.05 | 59 | 1014.4 |
| 20260507235630 | 11 | 49 | 1.6 | 4.8 | 0.00 | 0.05 | 0.05 | 51 | 1014.2 |
| 20260507235127 | 11 | 122 | 0.0 | 3.2 | 0.00 | 0.05 | 0.05 | 51 | 1014.1 |
| 20260507234624 | 12 | 76 | 1.6 | 12.9 | 0.00 | 0.05 | 0.05 | 48 | 1014.0 |
| 20260507234120 | 12 | 189 | 0.0 | 1.6 | 0.00 | 0.05 | 0.05 | 50 | 1014.0 |
| 20260507233617 | 12 | 275 | 3.2 | 17.7 | 0.00 | 0.05 | 0.05 | 48 | 1013.7 |
| 20260507233116 | 12 | 135 | 3.2 | 14.5 | 0.00 | 0.05 | 0.05 | 48 | 1013.9 |
| 20260507232612 | 12 | 278 | 3.2 | 4.8 | 0.00 | 0.05 | 0.05 | 53 | 1013.9 |
| 20260507232109 | 12 | 253 | 6.4 | 6.4 | 0.00 | 0.05 | 0.05 | 47 | 1013.9 |
| 20260507231605 | 12 | 292 | 1.6 | 6.4 | 0.00 | 0.05 | 0.05 | 50 | 1013.6 |
| 20260507231103 | 12 | 275 | 6.4 | 12.9 | 0.00 | 0.05 | 0.05 | 47 | 1013.5 |
| 20260507230559 | 13 | 187 | 1.6 | 3.2 | 0.00 | 0.05 | 0.05 | 46 | 1013.6 |
| 20260507230056 | 13 | 222 | 6.4 | 16.1 | 0.00 | 0.05 | 0.05 | 46 | 1013.5 |
| 20260507225550 | 13 | 312 | 4.8 | 14.5 | 0.00 | 0.05 | 0.05 | 46 | 1013.6 |
| 20260507225047 | 13 | 165 | 3.2 | 6.4 | 0.00 | 0.05 | 0.05 | 47 | 1013.6 |
| 20260507224543 | 13 | 283 | 3.2 | 4.8 | 0.00 | 0.05 | 0.05 | 46 | 1013.5 |
| 20260507224040 | 14 | 261 | 4.8 | 12.9 | 0.00 | 0.05 | 0.05 | 47 | 1013.6 |
| 20260507223536 | 13 | 317 | 4.8 | 4.8 | 0.00 | 0.05 | 0.05 | 47 | 1013.6 |
| 20260507223033 | 13 | 290 | 3.2 | 4.8 | 0.00 | 0.05 | 0.05 | 46 | 1013.5 |
| 20260507222530 | 14 | 252 | 3.2 | 6.4 | 0.00 | 0.05 | 0.05 | 46 | 1013.4 |
| 20260507222026 | 14 | 165 | 3.2 | 6.4 | 0.00 | 0.05 | 0.05 | 44 | 1013.4 |
| 20260507221523 | 13 | 255 | 8.0 | 14.5 | 0.00 | 0.05 | 0.05 | 48 | 1013.3 |
| 20260507221020 | 13 | 282 | 8.0 | 11.3 | 0.00 | 0.05 | 0.05 | 48 | 1013.2 |
| 20260507220517 | 13 | 321 | 4.8 | 9.7 | 0.00 | 0.05 | 0.05 | 46 | 1013.2 |
| 20260507220015 | 13 | 260 | 1.6 | 4.8 | 0.00 | 0.05 | 0.05 | 51 | 1013.2 |
| 20260507215510 | 13 | 37 | 9.7 | 12.9 | 0.00 | 0.05 | 0.05 | 47 | 1012.9 |
| 20260507215009 | 14 | 237 | 4.8 | 14.5 | 0.00 | 0.05 | 0.05 | 47 | 1013.0 |
| 20260507214505 | 13 | 316 | 6.4 | 6.4 | 0.00 | 0.05 | 0.05 | 47 | 1012.8 |
| 20260507214001 | 14 | 39 | 8.0 | 9.7 | 0.00 | 0.05 | 0.05 | 45 | 1012.9 |
| 20260507213458 | 15 | 272 | 4.8 | 14.5 | 0.00 | 0.05 | 0.05 | 47 | 1012.8 |
| 20260507212955 | 15 | 326 | 9.7 | 14.5 | 0.00 | 0.05 | 0.05 | 43 | 1012.7 |
| 20260507212450 | 15 | 310 | 11.3 | 16.1 | 0.00 | 0.05 | 0.05 | 44 | 1012.6 |
| 20260507211948 | 14 | 193 | 1.6 | 3.2 | 0.00 | 0.05 | 0.05 | 47 | 1012.5 |
| 20260507211444 | 14 | 221 | 0.0 | 12.9 | 0.00 | 0.05 | 0.05 | 45 | 1012.6 |
| 20260507210941 | 15 | 165 | 0.0 | 6.4 | 0.00 | 0.05 | 0.05 | 52 | 1012.5 |
| 20260507210438 | 14 | 273 | 1.6 | 4.8 | 0.00 | 0.05 | 0.05 | 51 | 1012.5 |
| 20260507205934 | 14 | 175 | 0.0 | 6.4 | 0.00 | 0.05 | 0.05 | 50 | 1012.4 |
| 20260507205432 | 15 | 346 | 1.6 | 4.8 | 0.00 | 0.05 | 0.05 | 48 | 1012.5 |
| 20260507204928 | 14 | 215 | 0.0 | 1.6 | 0.00 | 0.05 | 0.05 | 51 | 1012.5 |
| 20260507204424 | 14 | 52 | 4.8 | 14.5 | 0.00 | 0.05 | 0.05 | 48 | 1012.6 |
| 20260507203922 | 13 | 272 | 1.6 | 4.8 | 0.00 | 0.05 | 0.05 | 53 | 1012.5 |
| 20260507203420 | 13 | 45 | 4.8 | 6.4 | 0.00 | 0.05 | 0.05 | 53 | 1012.6 |
| 20260507202916 | 15 | 18 | 3.2 | 6.4 | 0.00 | 0.05 | 0.05 | 50 | 1012.5 |
| 20260507202413 | 15 | 199 | 4.8 | 16.1 | 0.00 | 0.05 | 0.05 | 48 | 1012.8 |
| 20260507201908 | 14 | 326 | 6.4 | 14.5 | 0.00 | 0.05 | 0.05 | 47 | 1012.7 |
| 20260507201404 | 14 | 300 | 6.4 | 9.7 | 0.00 | 0.05 | 0.05 | 52 | 1012.8 |
| 20260507200900 | 14 | 203 | 12.9 | 16.1 | 0.00 | 0.05 | 0.05 | 47 | 1012.9 |
| 20260507200356 | 15 | 322 | 9.7 | 12.9 | 0.00 | 0.05 | 0.05 | 49 | 1012.7 |
| 20260507195852 | 15 | 306 | 9.7 | 20.9 | 0.00 | 0.05 | 0.05 | 49 | 1012.9 |
| 20260507195350 | 15 | 265 | 9.7 | 12.9 | 0.00 | 0.05 | 0.05 | 48 | 1013.1 |
| 20260507194847 | 15 | 146 | 4.8 | 9.7 | 0.00 | 0.05 | 0.05 | 45 | 1013.0 |
| 20260507194343 | 14 | 156 | 4.8 | 11.3 | 0.00 | 0.05 | 0.05 | 54 | 1013.1 |
| 20260507193840 | 14 | 268 | 1.6 | 11.3 | 0.00 | 0.05 | 0.05 | 49 | 1012.9 |
| 20260507193337 | 14 | 259 | 3.2 | 16.1 | 0.00 | 0.05 | 0.05 | 50 | 1013.1 |
| 20260507192833 | 13 | 212 | 6.4 | 12.9 | 0.00 | 0.05 | 0.05 | 52 | 1013.0 |
| 20260507192330 | 15 | 264 | 12.9 | 22.5 | 0.00 | 0.05 | 0.05 | 50 | 1013.1 |
| 20260507191826 | 13 | 255 | 1.6 | 9.7 | 0.00 | 0.05 | 0.05 | 52 | 1013.1 |
| 20260507191322 | 13 | 249 | 4.8 | 11.3 | 0.00 | 0.05 | 0.05 | 52 | 1013.2 |
| 20260507190819 | 13 | 336 | 0.0 | 4.8 | 0.00 | 0.05 | 0.05 | 54 | 1013.2 |
| 20260507190318 | 13 | 303 | 8.0 | 9.7 | 0.00 | 0.05 | 0.05 | 57 | 1013.0 |
| 20260507185816 | 13 | 234 | 3.2 | 11.3 | 0.00 | 0.05 | 0.05 | 56 | 1013.1 |
| 20260507185313 | 13 | 260 | 6.4 | 16.1 | 0.00 | 0.05 | 0.05 | 57 | 1013.2 |
| 20260507184810 | 14 | 272 | 11.3 | 16.1 | 0.00 | 0.05 | 0.05 | 55 | 1013.3 |
| 20260507184308 | 15 | 152 | 3.2 | 6.4 | 0.00 | 0.05 | 0.05 | 53 | 1013.2 |
| 20260507183804 | 13 | 29 | 4.8 | 6.4 | 0.00 | 0.05 | 0.05 | 54 | 1013.4 |
| 20260507183302 | 13 | 202 | 3.2 | 17.7 | 0.00 | 0.05 | 0.05 | 56 | 1013.4 |
| 20260507182759 | 13 | 296 | 11.3 | 17.7 | 0.00 | 0.05 | 0.05 | 57 | 1013.3 |
| 20260507182253 | 14 | 139 | 4.8 | 16.1 | 0.00 | 0.05 | 0.05 | 54 | 1013.1 |
| 20260507181751 | 14 | 282 | 11.3 | 14.5 | 0.00 | 0.05 | 0.05 | 54 | 1013.1 |
| 20260507181247 | 15 | 24 | 3.2 | 4.8 | 0.00 | 0.05 | 0.05 | 54 | 1013.1 |
| 20260507180744 | 14 | 142 | 3.2 | 4.8 | 0.00 | 0.05 | 0.05 | 58 | 1013.1 |
| 20260507180241 | 13 | 40 | 12.9 | 16.1 | 0.00 | 0.05 | 0.05 | 57 | 1013.0 |
| 20260507175736 | 13 | 248 | 8.0 | 12.9 | 0.00 | 0.05 | 0.05 | 61 | 1013.1 |
| 20260507175233 | 14 | 303 | 11.3 | 17.7 | 0.00 | 0.05 | 0.05 | 56 | 1013.2 |
| 20260507174731 | 15 | 253 | 12.9 | 16.1 | 0.00 | 0.05 | 0.05 | 56 | 1013.1 |
| 20260507174228 | 13 | 214 | 4.8 | 6.4 | 0.00 | 0.05 | 0.05 | 63 | 1013.1 |
| 20260507173726 | 13 | 55 | 9.7 | 20.9 | 0.00 | 0.05 | 0.05 | 56 | 1013.3 |
| 20260507173222 | 13 | 96 | 3.2 | 6.4 | 0.00 | 0.05 | 0.05 | 55 | 1013.5 |
| 20260507172719 | 13 | 355 | 9.7 | 11.3 | 0.00 | 0.05 | 0.05 | 59 | 1013.9 |
| 20260507172216 | 13 | 27 | 3.2 | 6.4 | 0.00 | 0.05 | 0.05 | 62 | 1013.5 |
| 20260507171716 | 13 | 118 | 3.2 | 9.7 | 0.00 | 0.05 | 0.05 | 56 | 1013.7 |
| 20260507171214 | 15 | 310 | 8.0 | 14.5 | 0.00 | 0.05 | 0.05 | 55 | 1013.9 |
| 20260507170710 | 14 | 150 | 4.8 | 6.4 | 0.00 | 0.05 | 0.05 | 55 | 1014.1 |
| 20260507170208 | 13 | 335 | 3.2 | 11.3 | 0.00 | 0.05 | 0.05 | 59 | 1013.9 |
| 20260507165703 | 13 | 258 | 6.4 | 20.9 | 0.00 | 0.05 | 0.05 | 56 | 1014.0 |
| 20260507165159 | 12 | 142 | 4.8 | 12.9 | 0.00 | 0.05 | 0.05 | 60 | 1014.1 |
| 20260507164655 | 13 | 216 | 6.4 | 16.1 | 0.00 | 0.05 | 0.05 | 59 | 1014.2 |
| 20260507164153 | 12 | 267 | 12.9 | 17.7 | 0.00 | 0.05 | 0.05 | 59 | 1014.3 |
| 20260507163650 | 12 | 298 | 8.0 | 9.7 | 0.00 | 0.05 | 0.05 | 59 | 1014.6 |
| 20260507163148 | 12 | 38 | 3.2 | 6.4 | 0.00 | 0.05 | 0.05 | 60 | 1014.4 |
| 20260507162643 | 12 | 51 | 0.0 | 6.4 | 0.00 | 0.05 | 0.05 | 63 | 1014.5 |
| 20260507162140 | 12 | 247 | 0.0 | 6.4 | 0.00 | 0.05 | 0.05 | 63 | 1014.7 |
| 20260507161636 | 12 | 296 | 6.4 | 6.4 | 0.00 | 0.05 | 0.05 | 61 | 1014.7 |
| 20260507161133 | 11 | 353 | 1.6 | 6.4 | 0.00 | 0.05 | 0.05 | 63 | 1014.7 |
| 20260507160629 | 12 | 228 | 3.2 | 3.2 | 0.00 | 0.05 | 0.05 | 61 | 1014.7 |
| 20260507160126 | 12 | 351 | 0.0 | 6.4 | 0.00 | 0.05 | 0.05 | 61 | 1014.5 |
| 20260507155621 | 12 | 324 | 12.9 | 14.5 | 0.00 | 0.05 | 0.05 | 64 | 1014.5 |
| 20260507155118 | 11 | 114 | 3.2 | 4.8 | 0.00 | 0.05 | 0.05 | 63 | 1014.6 |
| 20260507154615 | 11 | 73 | 1.6 | 6.4 | 0.00 | 0.05 | 0.05 | 63 | 1014.6 |
| 20260507154112 | 11 | 89 | 6.4 | 6.4 | 0.00 | 0.05 | 0.05 | 68 | 1014.7 |
| 20260507153609 | 11 | 176 | 0.0 | 4.8 | 0.00 | 0.05 | 0.05 | 69 | 1014.7 |
| 20260507153105 | 11 | 130 | 3.2 | 9.7 | 0.00 | 0.05 | 0.05 | 67 | 1014.8 |
| 20260507152602 | 11 | 39 | 6.4 | 9.7 | 0.00 | 0.05 | 0.05 | 67 | 1014.8 |
| 20260507152057 | 11 | 121 | 0.0 | 12.9 | 0.00 | 0.05 | 0.05 | 66 | 1014.8 |
| 20260507151554 | 11 | 50 | 4.8 | 6.4 | 0.00 | 0.05 | 0.05 | 68 | 1014.9 |
| 20260507151051 | 11 | 88 | 3.2 | 9.7 | 0.00 | 0.05 | 0.05 | 66 | 1015.0 |
| 20260507150548 | 11 | 41 | 11.3 | 12.9 | 0.00 | 0.05 | 0.05 | 64 | 1014.9 |
| 20260507150039 | 11 | 105 | 0.0 | 6.4 | 0.00 | 0.05 | 0.05 | 67 | 1015.0 |
| 20260507145533 | 10 | 269 | 1.6 | 6.4 | 0.00 | 0.05 | 0.05 | 68 | 1015.0 |
| 20260507145032 | 11 | 307 | 6.4 | 16.1 | 0.00 | 0.05 | 0.05 | 66 | 1015.0 |
| 20260507144528 | 11 | 288 | 1.6 | 6.4 | 0.00 | 0.05 | 0.05 | 65 | 1015.0 |
| 20260507144026 | 11 | 56 | 6.4 | 9.7 | 0.00 | 0.05 | 0.05 | 68 | 1014.9 |
| 20260507143522 | 10 | 145 | 0.0 | 4.8 | 0.00 | 0.05 | 0.05 | 70 | 1015.1 |
| 20260507143020 | 10 | 205 | 4.8 | 11.3 | 0.00 | 0.05 | 0.05 | 69 | 1015.4 |
| 20260507142515 | 10 | 210 | 0.0 | 1.6 | 0.00 | 0.05 | 0.05 | 78 | 1015.3 |
| 20260507142012 | 10 | 121 | 1.6 | 3.2 | 0.00 | 0.05 | 0.05 | 82 | 1015.4 |
| 20260507141508 | 10 | 138 | 3.2 | 6.4 | 0.00 | 0.05 | 0.05 | 80 | 1015.6 |
| 20260507141006 | 10 | 132 | 1.6 | 4.8 | 0.00 | 0.05 | 0.05 | 81 | 1015.6 |
| 20260507140502 | 10 | 163 | 0.0 | 1.6 | 0.00 | 0.05 | 0.05 | 78 | 1015.6 |
| 20260507135959 | 10 | 163 | 1.6 | 4.8 | 0.00 | 0.05 | 0.05 | 82 | 1015.6 |
| 20260507135456 | 9 | 94 | 3.2 | 6.4 | 0.00 | 0.05 | 0.05 | 82 | 1015.6 |
| 20260507134953 | 9 | 65 | 4.8 | 4.8 | 0.00 | 0.05 | 0.05 | 83 | 1015.6 |
| 20260507134449 | 9 | 30 | 0.0 | 0.0 | 0.00 | 0.05 | 0.05 | 83 | 1015.7 |
| 20260507133946 | 9 | 87 | 3.2 | 3.2 | 0.00 | 0.05 | 0.05 | 83 | 1015.9 |
| 20260507133442 | 9 | 40 | 0.0 | 0.0 | 0.00 | 0.05 | 0.05 | 83 | 1015.7 |
| 20260507132941 | 9 | 161 | 1.6 | 4.8 | 0.00 | 0.05 | 0.05 | 84 | 1016.0 |
| 20260507132436 | 9 | 194 | 0.0 | 1.6 | 0.00 | 0.05 | 0.05 | 84 | 1016.0 |
| 20260507131933 | 8 | 260 | 0.0 | 3.2 | 0.00 | 0.05 | 0.05 | 85 | 1016.1 |
| 20260507131430 | 8 | 121 | 0.0 | 0.0 | 0.00 | 0.05 | 0.05 | 87 | 1015.9 |
| 20260507130927 | 8 | 255 | 0.0 | 0.0 | 0.00 | 0.05 | 0.05 | 86 | 1016.0 |
| 20260507130424 | 8 | 237 | 0.0 | 0.0 | 0.00 | 0.05 | 0.05 | 89 | 1016.0 |
| 20260507125923 | 8 | 168 | 0.0 | 0.0 | 0.00 | 0.05 | 0.05 | 89 | 1016.2 |
| 20260507125420 | 8 | 200 | 0.0 | 0.0 | 0.00 | 0.05 | 0.05 | 89 | 1016.4 |
| 20260507124918 | 8 | 195 | 0.0 | 0.0 | 0.00 | 0.05 | 0.05 | 90 | 1016.2 |
| 20260507124413 | 8 | 203 | 0.0 | 0.0 | 0.00 | 0.05 | 0.05 | 91 | 1016.4 |
| 20260507123912 | 8 | 236 | 0.0 | 0.0 | 0.00 | 0.05 | 0.05 | 92 | 1016.2 |
| 20260507123409 | 7 | 254 | 0.0 | 0.0 | 0.00 | 0.05 | 0.05 | 94 | 1016.4 |
| 20260507122905 | 7 | 283 | 0.0 | 0.0 | 0.00 | 0.05 | 0.05 | 96 | 1016.2 |
| 20260507122400 | 7 | 283 | 0.0 | 0.0 | 0.00 | 0.05 | 0.05 | 95 | 1016.4 |
| 20260507121857 | 7 | 283 | 0.0 | 0.0 | 0.00 | 0.05 | 0.05 | 96 | 1016.2 |
| 20260507121352 | 7 | 286 | 0.0 | 0.0 | 0.00 | 0.05 | 0.05 | 96 | 1016.0 |
| 20260507120849 | 7 | 297 | 0.0 | 0.0 | 0.00 | 0.05 | 0.05 | 96 | 1016.3 |
| 20260507120346 | 7 | 294 | 0.0 | 0.0 | 0.00 | 0.05 | 0.05 | 95 | 1016.0 |
| 20260507115842 | 7 | 295 | 0.0 | 0.0 | 0.00 | 0.05 | 0.05 | 96 | 1016.0 |
| 20260507115337 | 7 | 269 | 0.0 | 0.0 | 0.00 | 0.05 | 0.05 | 96 | 1016.1 |
| 20260507114833 | 7 | 294 | 0.0 | 0.0 | 0.00 | 0.05 | 0.05 | 97 | 1016.0 |
| 20260507114331 | 7 | 325 | 0.0 | 0.0 | 0.00 | 0.05 | 0.05 | 97 | 1015.9 |
| 20260507113828 | 7 | 283 | 0.0 | 0.0 | 0.00 | 0.05 | 0.05 | 97 | 1015.9 |
| 20260507113325 | 7 | 276 | 0.0 | 0.0 | 0.00 | 0.05 | 0.05 | 97 | 1015.7 |
| 20260507112823 | 7 | 293 | 0.0 | 0.0 | 0.00 | 0.05 | 0.05 | 97 | 1015.7 |
| 20260507112319 | 7 | 286 | 0.0 | 0.0 | 0.00 | 0.05 | 0.05 | 97 | 1015.6 |
| 20260507111818 | 7 | 286 | 0.0 | 0.0 | 0.00 | 0.05 | 0.05 | 97 | 1015.7 |
| 20260507111314 | 7 | 286 | 0.0 | 0.0 | 0.00 | 0.05 | 0.05 | 97 | 1015.7 |
| 20260507110810 | 7 | 286 | 0.0 | 0.0 | 0.00 | 0.05 | 0.05 | 97 | 1015.6 |
| 20260507110307 | 7 | 286 | 0.0 | 0.0 | 0.00 | 0.05 | 0.05 | 97 | 1015.4 |
| 20260507105804 | 7 | 286 | 0.0 | 0.0 | 0.00 | 0.05 | 0.05 | 97 | 1015.3 |
| 20260507105301 | 7 | 262 | 0.0 | 0.0 | 0.00 | 0.05 | 0.05 | 97 | 1015.4 |
| 20260507104758 | 7 | 262 | 0.0 | 0.0 | 0.00 | 0.05 | 0.05 | 96 | 1015.1 |
| 20260507104254 | 7 | 247 | 0.0 | 0.0 | 0.00 | 0.05 | 0.05 | 96 | 1015.2 |
| 20260507103750 | 7 | 284 | 1.6 | 4.8 | 0.00 | 0.05 | 0.05 | 95 | 1015.2 |
| 20260507103246 | 7 | 150 | 1.6 | 3.2 | 0.00 | 0.05 | 0.05 | 96 | 1015.2 |
| 20260507102743 | 7 | 130 | 3.2 | 4.8 | 0.00 | 0.05 | 0.05 | 95 | 1015.0 |
| 20260507102239 | 7 | 128 | 0.0 | 0.0 | 0.00 | 0.05 | 0.05 | 95 | 1015.1 |
| 20260507101735 | 7 | 122 | 0.0 | 0.0 | 0.00 | 0.05 | 0.05 | 93 | 1015.1 |
| 20260507101230 | 7 | 26 | 0.0 | 0.0 | 0.00 | 0.05 | 0.05 | 94 | 1015.2 |
| 20260507100727 | 7 | 31 | 0.0 | 1.6 | 0.00 | 0.05 | 0.05 | 94 | 1015.1 |
| 20260507100226 | 7 | 353 | 0.0 | 1.6 | 0.00 | 0.05 | 0.05 | 94 | 1015.0 |
| 20260507095724 | 7 | 348 | 3.2 | 6.4 | 0.00 | 0.05 | 0.05 | 94 | 1015.0 |
| 20260507095220 | 7 | 328 | 4.8 | 11.3 | 0.00 | 0.05 | 0.05 | 94 | 1014.9 |
| 20260507094717 | 7 | 314 | 1.6 | 4.8 | 0.00 | 0.05 | 0.05 | 95 | 1014.9 |
| 20260507094214 | 7 | 326 | 0.0 | 4.8 | 0.00 | 0.05 | 0.05 | 96 | 1014.8 |
| 20260507093711 | 7 | 9 | 3.2 | 6.4 | 0.00 | 0.05 | 0.05 | 97 | 1014.8 |
| 20260507093209 | 7 | 43 | 4.8 | 4.8 | 0.00 | 0.05 | 0.05 | 99 | 1014.8 |
| 20260507092706 | 8 | 41 | 4.8 | 4.8 | 0.00 | 0.05 | 0.05 | 99 | 1014.7 |
| 20260507092202 | 8 | 28 | 4.8 | 6.4 | 0.00 | 0.05 | 0.05 | 99 | 1014.4 |
| 20260507091659 | 8 | 128 | 0.0 | 0.0 | 0.00 | 0.05 | 0.05 | 99 | 1014.6 |
| 20260507091156 | 8 | 3 | 0.0 | 0.0 | 0.00 | 0.05 | 0.05 | 99 | 1014.7 |
| 20260507090651 | 8 | 3 | 0.0 | 0.0 | 0.00 | 0.05 | 0.05 | 99 | 1014.5 |
| 20260507090148 | 8 | 3 | 0.0 | 0.0 | 0.00 | 0.05 | 0.05 | 99 | 1014.6 |
| 20260507085645 | 8 | 3 | 0.0 | 0.0 | 0.00 | 0.05 | 0.05 | 99 | 1014.9 |
| 20260507085142 | 8 | 3 | 0.0 | 0.0 | 0.00 | 0.05 | 0.05 | 99 | 1014.9 |
| 20260507084639 | 8 | 3 | 0.0 | 0.0 | 0.00 | 0.05 | 0.05 | 99 | 1014.9 |
| 20260507084135 | 8 | 2 | 0.0 | 0.0 | 0.00 | 0.05 | 0.05 | 99 | 1014.8 |
| 20260507083632 | 8 | 14 | 0.0 | 0.0 | 0.00 | 0.05 | 0.05 | 99 | 1014.6 |
| 20260507083129 | 8 | 26 | 0.0 | 0.0 | 0.00 | 0.05 | 0.05 | 99 | 1014.8 |
| 20260507082625 | 8 | 28 | 0.0 | 0.0 | 0.00 | 0.05 | 0.05 | 99 | 1014.9 |
| 20260507082121 | 8 | 32 | 0.0 | 0.0 | 0.00 | 0.05 | 0.05 | 99 | 1014.6 |
| 20260507081618 | 8 | 29 | 0.0 | 0.0 | 0.00 | 0.05 | 0.05 | 99 | 1014.8 |
| 20260507081115 | 8 | 52 | 0.0 | 0.0 | 0.18 | 0.05 | 0.05 | 99 | 1014.7 |
| 20260507080611 | 8 | 358 | 0.0 | 0.0 | 0.18 | 0.05 | 0.05 | 99 | 1014.7 |
| 20260507080108 | 8 | 327 | 0.0 | 0.0 | 0.00 | 0.03 | 0.03 | 99 | 1014.9 |
| 20260507075602 | 8 | 342 | 0.0 | 0.0 | 0.00 | 0.03 | 0.03 | 99 | 1015.1 |
| 20260507075059 | 8 | 5 | 0.0 | 0.0 | 0.00 | 0.03 | 0.03 | 99 | 1015.1 |
| 20260507074556 | 8 | 24 | 0.0 | 0.0 | 0.00 | 0.03 | 0.03 | 99 | 1014.9 |
| 20260507074054 | 8 | 51 | 0.0 | 0.0 | 0.00 | 0.03 | 0.03 | 99 | 1014.8 |
| 20260507073550 | 8 | 39 | 0.0 | 0.0 | 0.00 | 0.03 | 0.03 | 99 | 1014.8 |
| 20260507073047 | 8 | 15 | 0.0 | 0.0 | 0.00 | 0.03 | 0.03 | 99 | 1014.8 |
| 20260507072544 | 8 | 40 | 0.0 | 0.0 | 0.00 | 0.03 | 0.03 | 99 | 1014.9 |
| 20260507072041 | 8 | 32 | 0.0 | 0.0 | 0.00 | 0.03 | 0.03 | 99 | 1015.0 |
| 20260507071539 | 8 | 40 | 0.0 | 0.0 | 0.00 | 0.03 | 0.03 | 99 | 1014.9 |
| 20260507071035 | 8 | 15 | 0.0 | 0.0 | 0.00 | 0.03 | 0.03 | 99 | 1014.8 |
| 20260507070532 | 8 | 45 | 0.0 | 0.0 | 0.00 | 0.03 | 0.03 | 99 | 1014.9 |
| 20260507070030 | 8 | 35 | 1.6 | 3.2 | 0.00 | 0.03 | 0.03 | 99 | 1014.6 |
| 20260507065526 | 8 | 47 | 1.6 | 3.2 | 0.00 | 0.03 | 0.03 | 99 | 1014.7 |
| 20260507065023 | 8 | 56 | 1.6 | 4.8 | 0.00 | 0.03 | 0.03 | 99 | 1014.7 |
| 20260507064521 | 8 | 34 | 1.6 | 3.2 | 0.00 | 0.03 | 0.03 | 98 | 1014.7 |
| 20260507064019 | 8 | 44 | 1.6 | 3.2 | 0.00 | 0.03 | 0.03 | 98 | 1014.8 |
| 20260507063516 | 8 | 44 | 0.0 | 1.6 | 0.00 | 0.03 | 0.03 | 98 | 1014.9 |
| 20260507063013 | 8 | 53 | 1.6 | 3.2 | 0.00 | 0.03 | 0.03 | 98 | 1014.8 |
| 20260507062510 | 8 | 37 | 1.6 | 3.2 | 0.00 | 0.03 | 0.03 | 98 | 1014.7 |
| 20260507062008 | 8 | 38 | 0.0 | 0.0 | 0.00 | 0.03 | 0.03 | 98 | 1014.8 |
| 20260507061505 | 8 | 53 | 0.0 | 1.6 | 0.00 | 0.03 | 0.03 | 98 | 1014.8 |
| 20260507061003 | 8 | 56 | 4.8 | 4.8 | 0.00 | 0.03 | 0.03 | 97 | 1014.9 |
| 20260507060500 | 8 | 48 | 1.6 | 3.2 | 0.00 | 0.03 | 0.03 | 97 | 1015.0 |
| 20260507055956 | 8 | 37 | 3.2 | 4.8 | 0.00 | 0.03 | 0.03 | 96 | 1015.0 |
| 20260507055451 | 8 | 354 | 3.2 | 6.4 | 0.00 | 0.03 | 0.03 | 96 | 1015.3 |
| 20260507054948 | 8 | 298 | 0.0 | 0.0 | 0.00 | 0.03 | 0.03 | 96 | 1015.3 |
| 20260507054444 | 8 | 21 | 3.2 | 3.2 | 0.00 | 0.03 | 0.03 | 96 | 1015.4 |
| 20260507053942 | 8 | 45 | 3.2 | 4.8 | 0.00 | 0.03 | 0.03 | 96 | 1015.8 |
| 20260507053439 | 8 | 45 | 3.2 | 6.4 | 0.00 | 0.03 | 0.03 | 95 | 1015.4 |
| 20260507052938 | 8 | 66 | 6.4 | 9.7 | 0.00 | 0.03 | 0.03 | 95 | 1015.3 |
| 20260507052435 | 9 | 11 | 0.0 | 3.2 | 0.00 | 0.03 | 0.03 | 95 | 1015.4 |
| 20260507051932 | 9 | 257 | 3.2 | 4.8 | 0.00 | 0.03 | 0.03 | 96 | 1015.4 |
| 20260507051429 | 9 | 43 | 0.0 | 1.6 | 0.00 | 0.03 | 0.03 | 95 | 1015.4 |
| 20260507050926 | 9 | 65 | 0.0 | 4.8 | 0.00 | 0.03 | 0.03 | 95 | 1015.4 |
| 20260507050423 | 9 | 88 | 1.6 | 9.7 | 0.00 | 0.03 | 0.03 | 95 | 1015.4 |
| 20260507045920 | 9 | 61 | 8.0 | 11.3 | 0.00 | 0.03 | 0.03 | 95 | 1015.1 |
| 20260507045416 | 10 | 54 | 6.4 | 6.4 | 0.13 | 0.03 | 0.03 | 97 | 1015.2 |
| 20260507044914 | 10 | 268 | 0.0 | 0.0 | 0.13 | 0.03 | 0.03 | 97 | 1015.4 |
| 20260507044410 | 10 | 257 | 0.0 | 0.0 | 0.00 | 0.00 | 0.00 | 97 | 1015.1 |